#timestamp,LO_Frequency,Hit,StdDev 
1558461615.4,286047003.8,N
1558461635.3,286047001.9,N
1558461655.1,286047002.6,N
1558461675.8,286047004.7,N
1558461695.7,286047002.9,N
1558461715.5,286047003.8,N
1558461735.4,286047005.4,N
1558461755.2,286047004.2,N
1558461775.0,286046999.8,N
1558461775.9,286046999.8,N
1558461795.8,286047000.4,N
1558461815.6,286046999.8,N
1558461835.4,286046999.7,N
1558461855.3,286047004.4,N
1558461875.1,286047000.1,N
1558461895.9,286047001.7,N
1558461915.7,286046999.7,N
1558461935.5,286046999.7,N
1558461955.4,286047001.4,N
1558461975.2,286047003.3,N
1558461995.1,286047005.2,N
1558461996.0,286047005.2,N
1558462015.8,286047003.9,N
1558462035.6,286047002.0,N
1558462055.5,286047002.8,N
1558462075.3,286047003.4,N
1558462095.2,286047005.9,N
1558462115.9,286047004.3,N
1558462135.7,286047002.2,N
1558462155.6,286047000.1,N
1558462175.4,286047002.8,N
1558462195.2,286046999.7,N
1558462215.1,286047006.6,Y
1558462216.0,286047006.6,P
1558462235.8,286047008.8,P
1558462255.7,286047008.5,P
1558462275.5,286047010.6,Y
1558462295.3,286047003.0,P
1558462315.2,286047007.2,P
1558462335.0,286047007.0,P
1558462335.9,286047007.0,Y
1558462355.8,286047002.6,P
1558462375.6,286047001.9,N
1558462395.4,286047001.0,N
1558462415.3,286046996.9,N
1558462435.1,286046999.2,N
1558462455.9,286046997.4,N
1558462475.7,286047011.9,Y
1558462495.6,286046995.1,P
1558462515.4,286046995.9,N
1558462535.2,286046995.4,N
1558462555.1,286046995.2,N
1558462556.0,286046995.2,N
1558462575.8,286046995.8,N
1558462595.7,286046997.2,N
1558462615.5,286046996.9,N
1558462635.3,286046993.4,Y
1558462655.2,286046999.1,P
1558462675.0,286046997.4,N
1558462675.9,286046997.4,N
1558462695.8,286046996.6,Y
1558462715.6,286046999.9,P
1558462735.4,286046998.8,N
1558462755.3,286047000.5,N
1558462775.1,286047000.9,N
1558462795.9,286047001.0,N
1558462815.7,286047003.2,N
1558462835.5,286047004.9,N
1558462855.4,286047002.9,N
1558462875.2,286047004.1,N
1558462895.0,286047005.0,N
1558462895.9,286047005.0,N
1558462915.8,286047004.7,N
1558462935.6,286047005.4,N
1558462955.5,286047005.8,N
1558462975.3,286047003.6,N
1558462995.1,286047004.9,N
1558463015.9,286047002.9,N
1558463035.7,286047004.3,N
1558463055.6,286047004.4,N
1558463075.4,286047001.4,N
1558463095.2,286047001.4,N
1558463115.1,286047004.2,N
1558463116.0,286047004.2,N
1558463135.8,286047004.6,N
1558463155.7,286047007.0,Y
1558463175.5,286047001.8,P
1558463195.3,286046999.8,N
1558463215.2,286046999.7,N
1558463235.0,286046999.9,N
1558463235.9,286046999.9,N
1558463255.7,286047002.8,N
1558463275.6,286046999.7,N
1558463295.4,286047002.4,N
1558463315.3,286047001.8,N
1558463335.1,286047004.0,N
1558463336.0,286047004.0,N
1558463355.8,286047005.5,Y
1558463375.7,286047001.3,P
1558463395.5,286047003.0,P
1558463415.4,286047006.0,P
1558463435.2,286047005.6,N
1558463455.0,286047005.3,N
1558463455.9,286047005.3,N
1558463475.8,286047005.2,N
1558463495.6,286047003.2,N
1558463515.4,286047005.6,Y
1558463535.3,286047001.7,P
1558463555.1,286047003.6,P
1558463575.9,286047004.9,P
1558463595.7,286047007.1,Y
1558463615.5,286047007.3,P
1558463635.4,286047006.2,P
1558463655.2,286047007.5,P
1558463675.1,286047007.8,Y
1558463676.0,286047007.8,P
1558463695.8,286047001.4,N
1558463715.6,286047001.5,N
1558463735.5,286047003.7,N
1558463755.3,286047007.3,N
1558463775.2,286047008.1,Y
1558463795.9,286047007.6,P
1558463815.7,286047005.2,P
1558463835.6,286047003.3,N
1558463855.4,286047005.6,Y
1558463875.2,286046998.9,P
1558463895.1,286046999.4,N
1558463896.0,286046999.4,N
1558463915.8,286047001.2,N
1558463935.7,286047000.7,N
1558463955.5,286047000.1,N
1558463975.3,286047005.2,N
1558463995.2,286047004.8,N
1558464015.0,286047008.9,Y
1558464015.9,286047008.9,P
1558464035.8,286047008.2,N
1558464055.6,286047010.6,P
1558464075.4,286047008.1,N
1558464095.3,286047008.9,N
1558464115.1,286047007.8,N
1558464135.8,286047009.8,Y
1558464155.7,286047005.0,P
1558464175.5,286047005.0,P
1558464195.4,286047006.4,P
1558464215.2,286047008.3,Y
1558464235.0,286047001.7,P
1558464235.9,286047001.7,N
1558464255.8,286047003.2,N
1558464275.6,286047008.1,Y
1558464295.5,286047006.4,P
1558464315.3,286047006.9,P
1558464335.1,286047004.6,N
1558464355.9,286047005.9,Y
1558464375.7,286047001.1,P
1558464395.6,286046998.9,N
1558464415.4,286046997.4,N
1558464435.2,286046996.1,N
1558464455.1,286046995.4,N
1558464456.0,286046995.4,N
1558464475.8,286046998.9,N
1558464495.6,286047002.4,N
1558464515.5,286047002.1,N
1558464535.3,286047002.5,N
1558464555.2,286047004.1,N
1558464575.9,286047004.4,N
1558464595.7,286047002.1,N
1558464615.6,286047001.1,N
1558464635.4,286046999.7,N
1558464655.2,286047000.0,N
1558464675.1,286047000.9,N
1558464676.0,286047000.9,N
1558464695.8,286047000.1,N
1558464715.7,286047002.1,N
1558464735.5,286047003.9,N
1558464755.3,286047004.1,N
1558464775.2,286047002.3,N
1558464795.0,286047000.5,N
1558464795.9,286047000.5,N
1558464815.8,286046998.3,N
1558464835.6,286046996.9,N
1558464855.4,286046999.2,N
1558464875.3,286046998.7,N
1558464895.1,286047000.3,N
1558464915.8,286047000.2,N
1558464935.7,286047003.9,N
1558464955.5,286047001.8,N
1558464975.4,286047003.5,N
1558464995.2,286047004.6,N
1558465015.0,286047006.4,N
1558465015.9,286047006.4,N
1558465035.8,286047009.8,Y
1558465055.6,286047008.5,P
1558465075.5,286047010.4,P
1558465095.3,286047010.6,N
1558465115.1,286047008.4,N
1558465135.9,286047006.3,N
1558465155.7,286047005.7,N
1558465175.5,286047007.6,N
1558465195.4,286047006.6,N
